EGKKEGGW

Guest
Details From EGKK - London Gatwick
To EGGW - London Luton
Flight Number -
Tags decoded
Created
Modified
Stats Distance 44 nm / 82 km
Max Altitude 0 ft / 0 m
Waypoints 2
Social Downloads 1
Likes 0
Share VATSIM

Download

Looking for another format? Having issues loading an existing format? Contact us
Advertisement - Login to hide

Notes

Requested: EGKK SAM70 EGGW

Route

EGKK EGGW

ID Type Via Altitude Latitude Longitude Leg Dist Tot Dist Heading (true) Name
O EGKK APT - 0 ft / 0 m 51.14875˚ -0.19247˚ - 0 nm - London Gatwick
O EGGW APT - 0 ft / 0 m 51.87463˚ -0.36845˚ 44 nm 44 nm 351° / 351° London Luton

Altitude Profile

Advertisement - Login to hide

EGKK

Details ICAO EGKK (LGW)
Name London Gatwick
Region United Kingdom
Timezone Europe/London (UTC+1.0)
Stats Elevation 196 ft / 60 m (AMSL)
Location 51.148753° -0.192472°
Runways 2
Magnetic Variation 0.367° W

METAR

EGKK 261150Z 06015KT 9999 FEW024 24/17 Q1018

Decode

TAF

TAF EGKK 261052Z 2612/2718 06010KT 9999 SCT025 PROB30 2612/2615 8000 PROB40 TEMPO 2620/2707 07015G25KT 4000 +TSRAGS BKN014 BKN040CB BECMG 2706/2709 12008KT TEMPO 2714/2718 4000 TSRA BKN014 BKN040CB PROB30 TEMPO 2714/2718 2000 +TSRAGR

Decode

Departure Runways

ID Width Length Bearing (true) Bearing (mag) Surface Threshold Offset Overrun Length
08L 148 ft / 45 m 8,377 ft / 2,553 m 77.69° 78.06° Asphalt 1,053 ft / 321 m 0 ft / 0 m
08R 148 ft / 45 m 10,341 ft / 3,152 m 77.59° 77.96° Asphalt 1,289 ft / 393 m 0 ft / 0 m
26L 148 ft / 45 m 10,341 ft / 3,152 m 257.63° 258.00° Asphalt 879 ft / 268 m 600 ft / 183 m
26R 148 ft / 45 m 8,377 ft / 2,553 m 257.71° 258.08° Asphalt 1,365 ft / 416 m 0 ft / 0 m

EGGW

Details ICAO EGGW (LTN)
Name London Luton
Region United Kingdom
Timezone Europe/London (UTC+1.0)
Stats Elevation 526 ft / 160 m (AMSL)
Location 51.874629° -0.368450°
Runways 1
Magnetic Variation 0.507° W

METAR

EGGW 261150Z AUTO 03009KT 360V080 9000 SCT010 20/18 Q1020

Decode

TAF

TAF EGGW 261105Z 2612/2712 04010KT 7000 FEW020 BECMG 2612/2614 9999 PROB40 TEMPO 2623/2712 3000 +TSRA BKN010 BKN040CB

Decode

Destination Runways

ID Width Length Bearing (true) Bearing (mag) Surface Threshold Offset Overrun Length
08 151 ft / 46 m 7,066 ft / 2,154 m 74.35° 74.86° Asphalt 0 ft / 0 m 200 ft / 61 m
26 151 ft / 46 m 7,066 ft / 2,154 m 254.38° 254.89° Asphalt 272 ft / 83 m 0 ft / 0 m

Approach Navaids

Runway Type Ident Frequency Range Bearing (true) Bearing (mag) Slope Elevation
08 Localiser ILTN 109.15 MHz 18 nm / 33 km 74.37° 74.88° - 526 ft / 160 m (AMSL)
08 Glidescope ILTN 109.15 MHz 10 nm / 19 km 74.36° 74.87° 3.00° 526 ft / 160 m (AMSL)
08 DME ILTN 109.15 MHz 18 nm / 33 km - - - 549 ft / 167 m (AMSL)
26 Localiser ILJ 109.15 MHz 18 nm / 33 km 254.35° 254.86° - 526 ft / 160 m (AMSL)
26 Glidescope ILJ 109.15 MHz 10 nm / 19 km 254.36° 254.87° 3.00° 526 ft / 160 m (AMSL)
26 DME ILJ 109.15 MHz 18 nm / 33 km - - - 549 ft / 167 m (AMSL)

Popular Alternatives